Hourly Weather El Quseir

Today, 27 September, Sunday

Time Temperature Precipitation Wind Pressure Humidity
00:00 +28°C° 0 mm 7 mps 755 mmHg 29%
01:00 +28°C° 0 mm 7 mps 755 mmHg 29%
02:00 +27°C° 0 mm 6 mps 755 mmHg 30%
03:00 +27°C° 0 mm 7 mps 755 mmHg 31%
04:00 +27°C° 0 mm 7 mps 755 mmHg 32%
05:00 +27°C° 0 mm 7 mps 755 mmHg 33%
06:00 +29°C° 0 mm 7 mps 755 mmHg 32%
07:00 +32°C° 0 mm 8 mps 756 mmHg 30%
08:00 +34°C° 0 mm 8 mps 756 mmHg 28%
09:00 +35°C° 0 mm 7 mps 756 mmHg 28%
10:00 +36°C° 0 mm 7 mps 756 mmHg 29%
11:00 +38°C° 0 mm 6 mps 756 mmHg 29%
12:00 +38°C° 0 mm 6 mps 755 mmHg 28%
13:00 +39°C° 0 mm 5 mps 755 mmHg 27%
14:00 +39°C° 0 mm 5 mps 754 mmHg 26%
15:00 +37°C° 0 mm 4 mps 754 mmHg 26%
16:00 +37°C° 0 mm 4 mps 754 mmHg 27%
17:00 +36°C° 0 mm 4 mps 754 mmHg 27%
18:00 +34°C° 0 mm 4 mps 755 mmHg 30%
19:00 +32°C° 0 mm 4 mps 755 mmHg 33%
20:00 +29°C° 0 mm 4 mps 755 mmHg 36%
21:00 +28°C° 0 mm 4 mps 756 mmHg 35%
22:00 +28°C° 0 mm 3 mps 756 mmHg 34%
23:00 +28°C° 0 mm 3 mps 756 mmHg 33%

Tomorrow, 28 September, Monday

Time Temperature Precipitation Wind Pressure Humidity
00:00 +27°C° 0 mm 4 mps 756 mmHg 33%
01:00 +27°C° 0 mm 5 mps 756 mmHg 33%
02:00 +27°C° 0 mm 6 mps 756 mmHg 33%
03:00 +27°C° 0 mm 7 mps 756 mmHg 37%
04:00 +27°C° 0 mm 8 mps 756 mmHg 41%
05:00 +27°C° 0 mm 8 mps 756 mmHg 45%
06:00 +29°C° 0 mm 8 mps 757 mmHg 39%
07:00 +33°C° 0 mm 8 mps 757 mmHg 34%
08:00 +37°C° 0 mm 8 mps 757 mmHg 28%
09:00 +38°C° 0 mm 8 mps 757 mmHg 26%
10:00 +39°C° 0 mm 7 mps 757 mmHg 24%
11:00 +40°C° 0 mm 7 mps 757 mmHg 22%
12:00 +41°C° 0 mm 6 mps 756 mmHg 21%
13:00 +41°C° 0 mm 5 mps 756 mmHg 19%
14:00 +41°C° 0 mm 5 mps 755 mmHg 18%
15:00 +40°C° 0 mm 4 mps 755 mmHg 19%
16:00 +38°C° 0 mm 3 mps 755 mmHg 20%
17:00 +38°C° 0 mm 3 mps 754 mmHg 21%
18:00 +36°C° 0 mm 3 mps 755 mmHg 22%
19:00 +34°C° 0 mm 2 mps 755 mmHg 23%
20:00 +31°C° 0 mm 2 mps 755 mmHg 25%
21:00 +31°C° 0 mm 2 mps 755 mmHg 24%
22:00 +31°C° 0 mm 2 mps 755 mmHg 23%
23:00 +30°C° 0 mm 2 mps 756 mmHg 22%

Day after tomorrow, 29 September, Tuesday

Time Temperature Precipitation Wind Pressure Humidity
00:00 +30°C° 0 mm 4 mps 755 mmHg 22%
01:00 +30°C° 0 mm 6 mps 755 mmHg 23%
02:00 +30°C° 0 mm 7 mps 755 mmHg 24%
03:00 +29°C° 0 mm 8 mps 755 mmHg 26%
04:00 +29°C° 0 mm 8 mps 755 mmHg 29%
05:00 +28°C° 0 mm 8 mps 755 mmHg 32%
06:00 +32°C° 0 mm 8 mps 755 mmHg 28%
07:00 +35°C° 0 mm 8 mps 756 mmHg 25%
08:00 +39°C° 0 mm 8 mps 756 mmHg 21%
09:00 +40°C° 0 mm 8 mps 756 mmHg 20%
10:00 +41°C° 0 mm 8 mps 755 mmHg 19%
11:00 +44°C° 0 mm 7 mps 755 mmHg 18%
12:00 +44°C° 0 mm 6 mps 755 mmHg 18%
13:00 +44°C° 0 mm 6 mps 754 mmHg 19%
14:00 +43°C° 0 mm 5 mps 753 mmHg 19%
15:00 +41°C° 0 mm 4 mps 753 mmHg 21%
16:00 +40°C° 0 mm 4 mps 753 mmHg 22%
17:00 +38°C° 0 mm 3 mps 753 mmHg 24%
18:00 +36°C° 0 mm 4 mps 753 mmHg 27%
19:00 +34°C° 0 mm 4 mps 753 mmHg 30%
20:00 +32°C° 0 mm 5 mps 753 mmHg 33%
21:00 +32°C° 0 mm 4 mps 753 mmHg 30%
22:00 +32°C° 0 mm 4 mps 753 mmHg 27%
23:00 +31°C° 0 mm 3 mps 753 mmHg 24%

30 September, Wednesday

Time Temperature Precipitation Wind Pressure Humidity
00:00 +30°C° 0 mm 5 mps 753 mmHg 26%
01:00 +29°C° 0 mm 6 mps 752 mmHg 28%
02:00 +29°C° 0 mm 7 mps 752 mmHg 30%
03:00 +29°C° 0 mm 8 mps 752 mmHg 30%
04:00 +28°C° 0 mm 8 mps 752 mmHg 30%
05:00 +28°C° 0 mm 8 mps 752 mmHg 31%
06:00 +31°C° 0 mm 8 mps 753 mmHg 28%
07:00 +34°C° 0 mm 8 mps 753 mmHg 26%
08:00 +37°C° 0 mm 8 mps 753 mmHg 23%
09:00 +39°C° 0 mm 8 mps 753 mmHg 22%
10:00 +40°C° 0 mm 8 mps 753 mmHg 20%
11:00 +43°C° 0 mm 7 mps 752 mmHg 18%
12:00 +42°C° 0 mm 6 mps 752 mmHg 20%
13:00 +42°C° 0 mm 5 mps 751 mmHg 22%
14:00 +42°C° 0 mm 4 mps 750 mmHg 24%
15:00 +40°C° 0 mm 3 mps 750 mmHg 25%
16:00 +39°C° 0 mm 2 mps 750 mmHg 26%
17:00 +37°C° 0 mm 1 mps 750 mmHg 28%
18:00 +36°C° 0 mm 2 mps 750 mmHg 30%
19:00 +34°C° 0 mm 3 mps 751 mmHg 33%
20:00 +32°C° 0 mm 4 mps 751 mmHg 36%
21:00 +32°C° 0 mm 5 mps 751 mmHg 35%
22:00 +32°C° 0 mm 6 mps 751 mmHg 34%
23:00 +30°C° 0 mm 7 mps 751 mmHg 32%

1 October, Thursday

Time Temperature Precipitation Wind Pressure Humidity
00:00 +30°C° 0 mm 7 mps 751 mmHg 33%
01:00 +31°C° 0 mm 8 mps 751 mmHg 34%
02:00 +31°C° 0 mm 8 mps 751 mmHg 34%
03:00 +29°C° 0 mm 8 mps 751 mmHg 36%
04:00 +28°C° 0 mm 9 mps 752 mmHg 38%
05:00 +28°C° 0 mm 9 mps 752 mmHg 40%
06:00 +31°C° 0 mm 9 mps 752 mmHg 36%
07:00 +34°C° 0 mm 9 mps 752 mmHg 31%
08:00 +37°C° 0 mm 8 mps 753 mmHg 26%
09:00 +38°C° 0 mm 8 mps 753 mmHg 26%
10:00 +39°C° 0 mm 8 mps 752 mmHg 26%
11:00 +40°C° 0 mm 8 mps 752 mmHg 25%
12:00 +40°C° 0 mm 7 mps 752 mmHg 25%
13:00 +41°C° 0 mm 6 mps 752 mmHg 25%
14:00 +41°C° 0 mm 5 mps 751 mmHg 25%
15:00 +40°C° 0 mm 5 mps 751 mmHg 27%
16:00 +37°C° 0 mm 4 mps 751 mmHg 30%
17:00 +36°C° 0 mm 4 mps 751 mmHg 32%
18:00 +35°C° 0 mm 4 mps 752 mmHg 35%
19:00 +33°C° 0 mm 5 mps 752 mmHg 38%
20:00 +32°C° 0 mm 5 mps 753 mmHg 41%
21:00 +32°C° 0 mm 6 mps 753 mmHg 40%
22:00 +32°C° 0 mm 6 mps 753 mmHg 39%
23:00 +32°C° 0 mm 6 mps 753 mmHg 37%

2 October, Friday

Time Temperature Precipitation Wind Pressure Humidity
00:00 +32°C° 0 mm 8 mps 753 mmHg 38%
01:00 +32°C° 0 mm 9 mps 753 mmHg 39%
02:00 +32°C° 0 mm 10 mps 753 mmHg 40%
03:00 +31°C° 0 mm 10 mps 753 mmHg 44%
04:00 +31°C° 0 mm 10 mps 753 mmHg 49%
05:00 +29°C° 0 mm 10 mps 753 mmHg 53%
06:00 +32°C° 0 mm 10 mps 754 mmHg 47%
07:00 +34°C° 0 mm 10 mps 754 mmHg 40%
08:00 +36°C° 0 mm 10 mps 755 mmHg 34%
09:00 +38°C° 0 mm 9 mps 755 mmHg 32%
10:00 +39°C° 0 mm 9 mps 754 mmHg 30%
11:00 +40°C° 0 mm 9 mps 754 mmHg 28%
12:00 +40°C° 0 mm 8 mps 754 mmHg 30%
13:00 +40°C° 0 mm 8 mps 754 mmHg 31%
14:00 +39°C° 0 mm 7 mps 753 mmHg 33%
15:00 +37°C° 0 mm 5 mps 753 mmHg 35%
16:00 +36°C° 0 mm 3 mps 753 mmHg 36%
17:00 +34°C° 0 mm 1 mps 753 mmHg 38%
18:00 +34°C° 0 mm 3 mps 754 mmHg 40%
19:00 +33°C° 0 mm 4 mps 754 mmHg 43%
20:00 +32°C° 0 mm 6 mps 755 mmHg 45%
21:00 +32°C° 0 mm 7 mps 755 mmHg 41%
22:00 +32°C° 0 mm 8 mps 755 mmHg 37%
23:00 +32°C° 0 mm 9 mps 756 mmHg 33%
Show more